Terminal Aerodrome Forecast
Issued by NWS Lake Charles, LA

Home | Current Version | Previous Version | Text Only | Print | Product List | Glossary On
Versions: 1 2 3 4 5 6 7 8 9 10 11 12 13 14 15 16 17 18 19 20 21 22 23 24 25
000
FTUS44 KLCH 292343
TAFLFT
TAF
KLFT 292343Z 3000/3024 18008KT P6SM BKN250
     FM300200 VRB03KT P6SM SCT015 SCT250
     FM301600 24006KT P6SM VCTS SCT025CB=

USA.gov is the U.S. government's official web portal to all federal, state and local government web resources and services.